AUA563 LOWW-LICJ

Flight info

Callsign AUA563
Flight time N/A
Altitude 37000
Route STEIN DCT NOHAT DCT NEKIN DCT MONID DCT SIRMI DCT MOLUX DCT BEDPI DCT SOR DCT DELER/N0444F390 DCT AMANO DCT ROSAS
Aircraft A320/M-SDE3FGHIRWY/LB1

Departure

Time 2026-05-07 08:40
Airport Vienna International Airport (LOWW)

Arrival

Time N/A
Airport Falcone–Borsellino Airport (LICJ)
Time Latitude Longitude Altitude Speed Heading
2026-05-07 08:14 48.11825 16.56984 617 ft 0 kts 206°
2026-05-07 08:31 48.11838 16.56994 623 ft 4 kts 206°
2026-05-07 08:32 48.11861 16.57011 625 ft 4 kts 206°
2026-05-07 08:32 48.11885 16.57020 613 ft 4 kts 159°
2026-05-07 08:32 48.11900 16.57002 622 ft 2 kts 116°
2026-05-07 08:32 48.11909 16.56976 625 ft 0 kts 116°
2026-05-07 08:35 48.11909 16.56977 618 ft 2 kts 115°
2026-05-07 08:35 48.11896 16.57016 625 ft 9 kts 116°
2026-05-07 08:35 48.11857 16.57172 612 ft 14 kts 93°
2026-05-07 08:35 48.11839 16.57264 622 ft 14 kts 114°
2026-05-07 08:36 48.11735 16.57378 618 ft 14 kts 173°
2026-05-07 08:36 48.11706 16.57368 613 ft 1 kts 176°
2026-05-07 08:36 48.11672 16.57393 616 ft 14 kts 153°
2026-05-07 08:36 48.11574 16.57445 614 ft 14 kts 162°
2026-05-07 08:37 48.11484 16.57454 609 ft 12 kts 200°
2026-05-07 08:37 48.11402 16.57395 613 ft 15 kts 204°
2026-05-07 08:37 48.11298 16.57321 609 ft 17 kts 206°
2026-05-07 08:37 48.11199 16.57311 621 ft 15 kts 133°
2026-05-07 08:38 48.11155 16.57439 622 ft 13 kts 114°
2026-05-07 08:38 48.11120 16.57557 612 ft 12 kts 114°
2026-05-07 08:38 48.11074 16.57644 609 ft 9 kts 151°
2026-05-07 08:38 48.11016 16.57627 609 ft 8 kts 205°
2026-05-07 08:39 48.10950 16.57577 613 ft 15 kts 211°
2026-05-07 08:39 48.10943 16.57447 619 ft 14 kts 301°
2026-05-07 08:39 48.10991 16.57299 614 ft 23 kts 296°
2026-05-07 08:39 48.11154 16.56786 617 ft 88 kts 297°
2026-05-07 08:40 48.11500 16.55707 615 ft 143 kts 295°
2026-05-07 08:40 48.12005 16.54211 986 ft 159 kts 294°
2026-05-07 08:40 48.12168 16.52634 1760 ft 161 kts 252°
2026-05-07 08:40 48.11529 16.51193 2367 ft 175 kts 231°
2026-05-07 08:41 48.10570 16.49869 2761 ft 199 kts 226°
2026-05-07 08:41 48.09411 16.48564 3184 ft 219 kts 217°
2026-05-07 08:41 48.07976 16.47428 3567 ft 248 kts 198°
2026-05-07 08:41 48.06210 16.47376 4225 ft 267 kts 173°
2026-05-07 08:42 48.04350 16.47801 5205 ft 269 kts 173°
2026-05-07 08:42 48.02490 16.48180 6229 ft 269 kts 173°
2026-05-07 08:42 48.00636 16.48535 7220 ft 269 kts 174°
2026-05-07 08:42 47.98764 16.48858 8148 ft 271 kts 178°
2026-05-07 08:43 47.96904 16.48677 9031 ft 273 kts 193°
2026-05-07 08:43 47.95108 16.47755 9971 ft 274 kts 207°
2026-05-07 08:43 47.93378 16.46387 10509 ft 290 kts 208°
2026-05-07 08:43 47.91518 16.44923 10851 ft 310 kts 208°
2026-05-07 08:44 47.89509 16.43643 11524 ft 318 kts 197°
2026-05-07 08:44 47.87331 16.43102 12291 ft 324 kts 184°
2026-05-07 08:44 47.85061 16.43371 13082 ft 331 kts 171°
2026-05-07 08:44 47.82810 16.44249 13859 ft 336 kts 168°
2026-05-07 08:45 47.80544 16.45153 14565 ft 338 kts 168°
2026-05-07 08:45 47.78264 16.46057 15274 ft 340 kts 169°
2026-05-07 08:45 47.75961 16.46965 15991 ft 342 kts 169°
2026-05-07 08:45 47.73675 16.47863 16691 ft 344 kts 169°
2026-05-07 08:46 47.71357 16.48774 17390 ft 346 kts 169°
2026-05-07 08:46 47.69028 16.49691 18096 ft 348 kts 169°
2026-05-07 08:46 47.66671 16.50617 18713 ft 350 kts 169°
2026-05-07 08:46 47.64313 16.51545 19329 ft 351 kts 169°
2026-05-07 08:47 47.61929 16.52485 19935 ft 353 kts 169°
2026-05-07 08:47 47.59569 16.53412 20532 ft 355 kts 169°
2026-05-07 08:47 47.57162 16.54352 21128 ft 358 kts 169°
2026-05-07 08:47 47.54753 16.55295 21714 ft 360 kts 169°
2026-05-07 08:48 47.52307 16.56251 22311 ft 363 kts 169°
2026-05-07 08:48 47.49848 16.57208 22894 ft 366 kts 169°
2026-05-07 08:48 47.47398 16.58160 23434 ft 369 kts 170°
2026-05-07 08:48 47.44906 16.59131 23891 ft 372 kts 169°
2026-05-07 08:49 47.42369 16.59917 24319 ft 371 kts 177°
2026-05-07 08:49 47.39805 16.60112 24738 ft 371 kts 182°
2026-05-07 08:49 47.37206 16.60220 25156 ft 374 kts 182°
2026-05-07 08:49 47.34600 16.60328 25580 ft 376 kts 182°
2026-05-07 08:50 47.31960 16.60437 25985 ft 379 kts 182°
2026-05-07 08:50 47.29308 16.60549 26382 ft 381 kts 182°
2026-05-07 08:50 47.26647 16.60662 26775 ft 384 kts 181°
2026-05-07 08:50 47.24001 16.60777 27152 ft 386 kts 182°
2026-05-07 08:51 47.21292 16.60894 27533 ft 388 kts 182°
2026-05-07 08:51 47.18582 16.61014 27904 ft 390 kts 182°
2026-05-07 08:51 47.15894 16.61132 28273 ft 393 kts 182°
2026-05-07 08:51 47.13149 16.61248 28632 ft 395 kts 182°
2026-05-07 08:52 47.10402 16.61360 28991 ft 397 kts 182°
2026-05-07 08:52 47.07624 16.61479 29339 ft 399 kts 182°
2026-05-07 08:52 47.04853 16.61603 29688 ft 401 kts 182°
2026-05-07 08:52 47.02056 16.61730 30009 ft 403 kts 182°
2026-05-07 08:53 46.99240 16.61856 30297 ft 404 kts 182°
2026-05-07 08:53 46.96422 16.61979 30573 ft 406 kts 182°
2026-05-07 08:53 46.93619 16.62096 30848 ft 407 kts 182°
2026-05-07 08:53 46.90791 16.62212 31118 ft 407 kts 182°
2026-05-07 08:54 46.87947 16.62331 31374 ft 409 kts 182°
2026-05-07 08:54 46.85118 16.62455 31687 ft 408 kts 182°
2026-05-07 08:54 46.82277 16.62582 32062 ft 406 kts 183°
2026-05-07 08:54 46.79447 16.62949 32449 ft 408 kts 178°
2026-05-07 08:55 46.76634 16.63498 32849 ft 406 kts 178°
2026-05-07 08:55 46.73846 16.64039 33219 ft 404 kts 178°
2026-05-07 08:55 46.71058 16.64577 33593 ft 403 kts 178°
2026-05-07 08:55 46.68279 16.65106 33953 ft 402 kts 178°
2026-05-07 08:56 46.65538 16.65624 34234 ft 401 kts 178°
2026-05-07 08:56 46.62759 16.66145 34487 ft 401 kts 178°
2026-05-07 08:56 46.59996 16.66666 34713 ft 402 kts 178°
2026-05-07 08:56 46.57209 16.67195 34905 ft 404 kts 178°
2026-05-07 08:57 46.51639 16.68257 34992 ft 405 kts 178°
2026-05-07 08:57 46.46957 16.69147 34995 ft 405 kts 178°
2026-05-07 08:58 46.40506 16.69356 35002 ft 397 kts 191°
2026-05-07 08:58 46.35007 16.68378 35001 ft 397 kts 191°
2026-05-07 08:59 46.29517 16.67393 35007 ft 397 kts 191°
2026-05-07 08:59 46.24030 16.66399 35009 ft 398 kts 191°
2026-05-07 09:00 46.18546 16.65412 35010 ft 398 kts 191°
2026-05-07 09:00 46.13016 16.64433 35011 ft 398 kts 191°
2026-05-07 09:01 46.07502 16.63456 35115 ft 400 kts 191°
2026-05-07 09:01 46.04780 16.62968 35375 ft 400 kts 191°
2026-05-07 09:01 46.02013 16.62476 35587 ft 400 kts 191°
2026-05-07 09:02 45.99237 16.61983 35805 ft 401 kts 191°
2026-05-07 09:02 45.96459 16.61491 36013 ft 402 kts 191°
2026-05-07 09:02 45.93708 16.61005 36204 ft 402 kts 191°
2026-05-07 09:02 45.90926 16.60513 36398 ft 403 kts 191°
2026-05-07 09:03 45.88147 16.60021 36571 ft 404 kts 191°
2026-05-07 09:03 45.85345 16.59525 36762 ft 405 kts 191°
2026-05-07 09:03 45.82528 16.59030 36955 ft 405 kts 191°
2026-05-07 09:03 45.79737 16.58538 37021 ft 404 kts 191°
2026-05-07 09:04 45.74179 16.57560 37029 ft 403 kts 191°
2026-05-07 09:04 45.68599 16.56585 37031 ft 403 kts 191°
2026-05-07 09:05 45.63964 16.55772 37038 ft 404 kts 191°
2026-05-07 09:05 45.57456 16.54637 37049 ft 404 kts 191°
2026-05-07 09:06 45.51864 16.53652 37046 ft 404 kts 191°
2026-05-07 09:06 45.46270 16.52677 37042 ft 404 kts 190°
2026-05-07 09:07 45.40746 16.51725 37043 ft 395 kts 190°
2026-05-07 09:07 45.35309 16.50785 37045 ft 394 kts 191°
2026-05-07 09:08 45.29867 16.49837 37046 ft 394 kts 191°
2026-05-07 09:08 45.24434 16.48892 37042 ft 394 kts 190°
2026-05-07 09:09 45.18982 16.47954 37039 ft 394 kts 190°
2026-05-07 09:09 45.13532 16.47024 37039 ft 394 kts 190°
2026-05-07 09:10 45.08089 16.46088 37035 ft 394 kts 190°
2026-05-07 09:10 45.02639 16.45157 37038 ft 395 kts 190°
2026-05-07 09:11 44.97200 16.44221 37036 ft 395 kts 190°
2026-05-07 09:11 44.91721 16.43285 37015 ft 397 kts 190°
2026-05-07 09:12 44.86195 16.42338 37006 ft 401 kts 190°
2026-05-07 09:12 44.80657 16.41390 37008 ft 404 kts 190°
2026-05-07 09:13 44.75037 16.40441 37009 ft 406 kts 190°
2026-05-07 09:13 44.69426 16.39495 37010 ft 407 kts 190°
2026-05-07 09:14 44.63800 16.38539 37016 ft 408 kts 190°
2026-05-07 09:14 44.58176 16.37590 37023 ft 409 kts 190°
2026-05-07 09:15 44.53436 16.36788 37032 ft 409 kts 190°
2026-05-07 09:15 44.46856 16.35684 37036 ft 410 kts 190°
2026-05-07 09:16 44.41164 16.34728 37042 ft 410 kts 190°
2026-05-07 09:16 44.35513 16.33772 37050 ft 411 kts 190°
2026-05-07 09:17 44.30792 16.32987 37054 ft 411 kts 190°
2026-05-07 09:17 44.24166 16.31887 37060 ft 411 kts 190°
2026-05-07 09:18 44.19430 16.31096 37062 ft 411 kts 190°
2026-05-07 09:18 44.13818 16.29682 37067 ft 407 kts 201°
2026-05-07 09:19 44.08550 16.26794 37076 ft 406 kts 204°
2026-05-07 09:19 44.03327 16.23905 37076 ft 406 kts 204°
2026-05-07 09:20 43.98046 16.21003 37066 ft 407 kts 204°
2026-05-07 09:20 43.92814 16.18127 37066 ft 407 kts 204°
2026-05-07 09:21 43.87530 16.15235 37062 ft 407 kts 204°
2026-05-07 09:21 43.82236 16.12346 37068 ft 408 kts 204°
2026-05-07 09:22 43.76972 16.09480 37054 ft 408 kts 204°
2026-05-07 09:22 43.71673 16.06592 37064 ft 408 kts 204°
2026-05-07 09:23 43.66411 16.03717 37062 ft 408 kts 204°
2026-05-07 09:23 43.61115 16.00835 37063 ft 409 kts 204°
2026-05-07 09:24 43.55839 15.97975 37060 ft 409 kts 204°
2026-05-07 09:24 43.50528 15.95105 37053 ft 409 kts 204°
2026-05-07 09:25 43.45248 15.92261 37055 ft 409 kts 204°
2026-05-07 09:25 43.39933 15.89397 37051 ft 409 kts 204°
2026-05-07 09:26 43.34625 15.86532 37038 ft 409 kts 204°
2026-05-07 09:26 43.29341 15.83694 37035 ft 410 kts 204°
2026-05-07 09:27 43.24009 15.80837 37028 ft 410 kts 204°
2026-05-07 09:28 43.16049 15.76578 37025 ft 410 kts 204°
2026-05-07 09:28 43.10751 15.73753 37027 ft 410 kts 204°
2026-05-07 09:29 43.05413 15.70915 37029 ft 410 kts 204°
2026-05-07 09:29 43.00087 15.68084 37026 ft 410 kts 204°
2026-05-07 09:30 42.94776 15.65268 37020 ft 410 kts 204°
2026-05-07 09:30 42.89445 15.62442 37019 ft 410 kts 204°
2026-05-07 09:31 42.84132 15.59630 37014 ft 411 kts 204°
2026-05-07 09:31 42.78805 15.56820 37016 ft 411 kts 205°
2026-05-07 09:32 42.73481 15.54022 37015 ft 411 kts 205°
2026-05-07 09:32 42.68134 15.51216 37017 ft 411 kts 205°
2026-05-07 09:33 42.62788 15.48412 37016 ft 411 kts 205°
2026-05-07 09:33 42.58343 15.46086 37016 ft 411 kts 205°